#timestamp,LO_Frequency,Hit,StdDev 
1685743215.1,286047001.2,P
1685743235.9,286046999.4,N
1685743255.7,286046997.0,N
1685743275.6,286046996.9,N
1685743295.4,286046997.1,N
1685743315.2,286046999.5,N
1685743335.1,286046999.3,N
1685743336.0,286046999.3,N
1685743355.8,286046998.6,N
1685743375.6,286046998.5,N
1685743395.5,286047001.1,N
1685743415.3,286047001.2,N
1685743435.2,286047000.3,N
1685743455.9,286047000.7,N
1685743475.7,286047000.2,N
1685743495.6,286047002.5,N
1685743515.4,286046999.8,N
1685743535.2,286047002.2,N
1685743555.1,286047002.2,N
1685743556.0,286047002.2,N
1685743575.8,286047002.4,N
1685743595.7,286046999.7,N
1685743615.5,286047002.8,N
1685743635.3,286047002.7,N
1685743655.2,286047001.0,N
1685743675.0,286047000.3,N
1685743675.9,286047000.3,N
1685743695.7,286047000.0,N
1685743715.6,286047002.2,N
1685743735.4,286047001.9,N
1685743755.3,286047004.4,N
1685743775.1,286047004.1,N
1685743776.0,286047004.1,N
1685743795.8,286047004.4,N
1685743815.7,286047001.8,N
1685743835.5,286047004.3,N
1685743855.3,286047003.1,N
1685743875.2,286047003.9,N
1685743895.0,286047003.4,N
1685743895.9,286047003.4,N
1685743915.8,286047005.6,Y
1685743935.6,286047002.0,P
1685743955.5,286047004.1,P
1685743975.3,286047004.1,P
1685743995.1,286047003.1,N
1685744015.9,286047003.6,Y
1685744035.7,286046999.9,P
1685744055.5,286046999.7,N
1685744075.4,286046999.7,N
1685744095.2,286047001.5,N
1685744115.1,286047001.3,N
1685744116.0,286047001.3,N
1685744135.8,286047001.7,N
1685744155.6,286047004.2,Y
1685744175.5,286047002.0,P
1685744195.3,286047002.2,P
1685744215.2,286047002.5,P
1685744235.9,286047002.6,Y
1685744255.7,286047001.2,P
1685744275.6,286047000.8,N
1685744295.4,286046998.8,N
1685744315.2,286046998.4,N
1685744335.1,286046998.4,N
1685744336.0,286046998.4,N
1685744355.8,286046998.5,N
1685744375.7,286047000.8,N
1685744395.5,286047000.7,N
1685744415.3,286047000.9,N
1685744435.2,286047000.6,N
1685744455.0,286047000.9,N
1685744455.9,286047000.9,N
1685744475.8,286046999.9,N
1685744495.6,286046999.9,N
1685744515.4,286047002.4,N
1685744535.3,286047002.2,N
1685744555.1,286047002.4,N
1685744575.8,286047001.6,N
1685744595.7,286047001.6,N
1685744615.5,286047001.7,N
1685744635.4,286047001.4,N
1685744655.2,286047004.2,Y
1685744675.0,286047001.5,P
1685744675.9,286047001.5,P
1685744695.8,286047001.9,P
1685744715.6,286047001.5,Y
1685744735.5,286047000.1,P
1685744755.3,286046999.9,N
1685744775.1,286047002.8,P
1685744795.9,286047000.3,N
1685744815.7,286047000.9,N
1685744835.5,286047000.9,N
1685744855.4,286047000.5,N
1685744875.2,286047000.9,N
1685744895.1,286047000.5,N
1685744896.0,286047000.5,N
1685744915.8,286047001.0,N
1685744935.7,286047000.0,N
1685744955.5,286047000.6,N
1685744975.3,286047001.1,N
1685744995.2,286047000.0,N
1685745015.0,286047000.1,N
1685745015.9,286047000.1,N
1685745035.7,286047002.7,Y
1685745085.6,286046999.9,E
1685745095.5,286047000.6,N
1685745115.4,286046998.6,P
1685745135.2,286047000.6,N
1685745155.0,286047001.0,N
1685745155.9,286047001.0,N
1685745175.8,286047000.9,N
1685745195.6,286047000.6,N
1685745215.5,286047002.4,Y
1685745235.3,286047002.4,P
1685745255.1,286047000.2,N
1685745275.9,286046999.9,N
1685745295.7,286046999.8,N
1685745315.5,286047000.0,N
1685745335.4,286047000.1,N
1685745355.2,286047002.4,N
1685745375.1,286046999.7,N
1685745376.0,286046999.7,N
1685745395.8,286047002.4,N
1685745415.6,286047002.8,N
1685745435.5,286047002.5,N
1685745455.3,286047002.8,N
1685745475.2,286047002.1,N
1685745495.9,286047002.8,N
1685745515.7,286047002.3,N
1685745535.6,286047002.6,N
1685745555.4,286047001.7,N
1685745575.3,286047004.3,Y
1685745595.1,286047002.4,P
1685745596.0,286047002.4,P
1685745615.8,286047000.0,N
1685745635.7,286047000.0,N
1685745655.5,286046999.7,N
1685745675.4,286047000.5,N
1685745695.2,286047000.0,N
1685745715.0,286047000.5,N
1685745715.9,286047000.5,N
1685745735.8,286046999.9,N
1685745755.6,286047000.3,N
1685745775.4,286047000.4,N
1685745795.3,286047000.2,N
1685745815.1,286047002.7,Y
1685745835.9,286047001.0,P
1685745855.7,286047000.8,P
1685745875.5,286047001.2,P
1685745895.4,286046998.1,Y
1685745915.2,286046998.3,P
1685745935.1,286047001.1,N
1685745936.0,286047001.1,N
1685745955.8,286047001.1,N
1685745975.6,286047000.8,N
1685745995.5,286046998.1,N
1685746015.3,286047001.0,N
1685746035.2,286047001.0,N
1685746055.9,286047000.6,N
1685746105.8,286047000.7,E
1685746115.7,286047001.0,N
1685746135.5,286046999.1,P
1685746155.4,286046998.6,N
1685746175.2,286046998.4,N
1685746195.0,286047001.1,N
1685746195.9,286047001.1,N
1685746215.8,286046998.2,N
1685746235.6,286046999.0,N
1685746255.4,286046998.5,N
1685746275.3,286046998.8,N
1685746295.1,286046999.0,N
1685746315.9,286046998.4,N
1685746335.7,286046998.4,N
1685746355.5,286046998.6,N
1685746375.4,286046998.7,N
1685746395.2,286046998.7,N
1685746415.1,286046998.7,N
1685746416.0,286046998.7,N
1685746435.8,286047001.2,N
1685746455.6,286046998.2,N
1685746475.5,286046998.1,N
1685746495.3,286047001.1,N
1685746515.2,286046998.6,N
1685746535.9,286046998.6,N
1685746555.7,286047001.2,N
1685746575.6,286047000.7,N
1685746595.4,286047000.6,N
1685746615.3,286047000.4,N
1685746635.1,286046999.9,N
1685746636.0,286046999.9,N
1685746655.8,286047002.8,N
1685746675.7,286047000.7,N
1685746695.5,286047000.4,N
1685746715.3,286047000.8,N
1685746735.2,286046998.3,N
1685746755.0,286046998.2,N
1685746755.9,286046998.2,N
1685746775.8,286046998.5,N
1685746795.6,286046998.6,N
